GALAXY 28 (G-28)

Last updated on Tue Jul 08 2025 00:02:44 GMT+0000 (Coordinated Universal Time)

1 28702U 05022A 25188.33181959 -.00000172 00000+0 00000+0 0 9990 2 28702 2.4091 83.2917 0002632 34.7417 198.2567 1.00270732 48525
UTC large
Height (km)
Speed (km/s)
/
Latitude / Longitude
Inclination (degrees)
Orbital Period (minutes)
Azimuth
Elevation
Range (km)
Doppler Factor

Next 0 passes for location: London (51.5072 / 0.1276)

Sorry there are no passes over London.